| time (UTC) | temp F | wind direction | speed knots | gust knots | rain 1hr in | rain 24hr in | rain mn in | humidity % | barometer mb |
| 20260507031032 | 45 | 68 | 0.0 | 3.5 | 0.05 | 0.65 | 0.65 | 97 | 1006.9 |
| 20260507025527 | 45 | 71 | 0.9 | 3.5 | 0.07 | 0.65 | 0.65 | 97 | 1006.9 |
| 20260507024028 | 46 | 355 | 0.9 | 2.6 | 0.05 | 0.62 | 0.62 | 97 | 1006.9 |
| 20260507022526 | 46 | 33 | 0.9 | 4.3 | 0.05 | 0.61 | 0.62 | 97 | 1007.0 |
| 20260507021026 | 46 | 89 | 0.9 | 3.5 | 0.06 | 0.60 | 0.60 | 97 | 1007.0 |
| 20260507015526 | 47 | 44 | 0.0 | 4.3 | 0.04 | 0.58 | 0.58 | 97 | 1006.8 |
| 20260507014027 | 47 | 355 | 0.9 | 4.3 | 0.04 | 0.57 | 0.57 | 97 | 1006.9 |
| 20260507012523 | 48 | 63 | 0.9 | 4.3 | 0.03 | 0.56 | 0.56 | 97 | 1006.7 |
| 20260507011754 | 48 | 346 | 1.7 | 5.2 | 0.01 | 0.54 | 0.54 | 97 | 1006.2 |
| 20260507005525 | 50 | 267 | 0.9 | 5.2 | 0.01 | 0.54 | 0.54 | 97 | 1006.1 |
| 20260507004024 | 51 | 94 | 0.9 | 5.2 | 0.08 | 0.53 | 0.53 | 97 | 1005.6 |
| 20260507002523 | 52 | 45 | 0.9 | 4.3 | 0.13 | 0.53 | 0.53 | 97 | 1005.3 |
| 20260507001025 | 52 | 48 | 0.9 | 4.3 | 0.14 | 0.53 | 0.53 | 97 | 1004.8 |
| 20260506235525 | 53 | 29 | 0.9 | 7.8 | 0.15 | 0.53 | 0.53 | 97 | 1004.7 |
| 20260506234025 | 54 | 13 | 2.6 | 7.8 | 0.07 | 0.45 | 0.47 | 97 | 1004.5 |
| 20260506232523 | 57 | 30 | 1.7 | 7.8 | 0.02 | 0.40 | 0.40 | 98 | 1003.9 |
| 20260506231021 | 57 | 238 | 1.7 | 7.8 | 0.01 | 0.39 | 0.39 | 98 | 1003.6 |
| 20260506230252 | 58 | 255 | 2.6 | 7.8 | 0.00 | 0.38 | 0.38 | 98 | 1003.4 |
| 20260506224021 | 58 | 247 | 2.6 | 7.8 | 0.00 | 0.38 | 0.38 | 98 | 1003.5 |
| 20260506222523 | 58 | 236 | 3.5 | 9.6 | 0.00 | 0.38 | 0.38 | 98 | 1003.7 |
| 20260506221023 | 58 | 223 | 2.6 | 7.0 | 0.00 | 0.38 | 0.38 | 98 | 1003.6 |
| 20260506215522 | 58 | 216 | 2.6 | 8.7 | 0.01 | 0.38 | 0.38 | 98 | 1003.5 |
| 20260506214753 | 58 | 221 | 2.6 | 8.7 | 0.01 | 0.38 | 0.38 | 98 | 1003.6 |
| 20260506212523 | 58 | 240 | 2.6 | 10.4 | 0.02 | 0.38 | 0.38 | 98 | 1003.8 |
| 20260506211750 | 58 | 264 | 3.5 | 10.4 | 0.02 | 0.38 | 0.38 | 97 | 1003.6 |
| 20260506205518 | 58 | 234 | 3.5 | 11.3 | 0.01 | 0.37 | 0.37 | 97 | 1003.6 |
| 20260506204018 | 58 | 252 | 3.5 | 11.3 | 0.02 | 0.37 | 0.37 | 98 | 1003.6 |
| 20260506202518 | 58 | 239 | 3.5 | 9.6 | 0.01 | 0.36 | 0.36 | 97 | 1003.8 |
| 20260506201018 | 59 | 336 | 2.6 | 8.7 | 0.02 | 0.36 | 0.36 | 97 | 1003.8 |
| 20260506195518 | 59 | 238 | 3.5 | 8.7 | 0.04 | 0.36 | 0.36 | 97 | 1003.9 |
| 20260506194017 | 59 | 253 | 1.7 | 8.7 | 0.07 | 0.35 | 0.35 | 97 | 1004.0 |
| 20260506193250 | 59 | 13 | 0.9 | 7.8 | 0.11 | 0.35 | 0.35 | 97 | 1004.1 |
| 20260506191749 | 59 | 200 | 1.7 | 8.7 | 0.15 | 0.34 | 0.34 | 97 | 1004.1 |
| 20260506190252 | 59 | 197 | 0.9 | 6.1 | 0.15 | 0.32 | 0.33 | 97 | 1004.4 |
| 20260506184012 | 58 | 234 | 1.7 | 7.0 | 0.14 | 0.28 | 0.28 | 97 | 1004.7 |
| 20260506182512 | 58 | 247 | 1.7 | 6.1 | 0.14 | 0.24 | 0.24 | 97 | 1004.8 |
| 20260506181011 | 59 | 245 | 1.7 | 6.1 | 0.12 | 0.19 | 0.19 | 96 | 1005.4 |
| 20260506175511 | 58 | 232 | 1.7 | 4.3 | 0.12 | 0.17 | 0.17 | 96 | 1005.5 |
| 20260506174012 | 58 | 217 | 0.9 | 6.1 | 0.12 | 0.14 | 0.14 | 96 | 1005.9 |
| 20260506173242 | 58 | 242 | 1.7 | 5.2 | 0.09 | 0.10 | 0.11 | 95 | 1006.2 |
| 20260506171008 | 59 | 231 | 1.7 | 3.5 | 0.07 | 0.07 | 0.07 | 95 | 1006.2 |
| 20260506165505 | 59 | 232 | 1.7 | 7.0 | 0.05 | 0.05 | 0.05 | 94 | 1006.1 |
| 20260506164005 | 59 | 226 | 1.7 | 3.5 | 0.02 | 0.02 | 0.02 | 93 | 1006.1 |
| 20260506162504 | 60 | 246 | 1.7 | 3.5 | 0.01 | 0.01 | 0.01 | 91 | 1006.3 |
| 20260506161006 | 61 | 252 | 1.7 | 7.8 | 0.00 | 0.00 | 0.00 | 89 | 1006.2 |
| 20260506160238 | 61 | 229 | 1.7 | 7.0 | 0.00 | 0.00 | 0.00 | 88 | 1006.3 |
| 20260506154000 | 60 | 236 | 1.7 | 7.0 | 0.00 | 0.00 | 0.00 | 89 | 1006.7 |
| 20260506153232 | 60 | 239 | 0.9 | 5.2 | 0.00 | 0.00 | 0.00 | 88 | 1006.8 |
| 20260506150959 | 60 | 202 | 0.9 | 5.2 | 0.00 | 0.00 | 0.00 | 87 | 1007.3 |
| 20260506150231 | 60 | 238 | 1.7 | 6.1 | 0.00 | 0.00 | 0.00 | 85 | 1007.5 |
| 20260506144730 | 61 | 146 | 2.6 | 7.0 | 0.00 | 0.00 | 0.00 | 84 | 1007.3 |
| 20260506142502 | 61 | 234 | 2.6 | 6.1 | 0.00 | 0.00 | 0.00 | 84 | 1007.1 |
| 20260506140959 | 61 | 232 | 2.6 | 7.8 | 0.00 | 0.00 | 0.00 | 85 | 1007.2 |
| 20260506135458 | 60 | 102 | 2.6 | 8.7 | 0.00 | 0.00 | 0.00 | 86 | 1007.1 |
| 20260506133959 | 59 | 242 | 2.6 | 6.1 | 0.00 | 0.00 | 0.00 | 88 | 1007.2 |
| 20260506133231 | 58 | 202 | 1.7 | 6.1 | 0.00 | 0.00 | 0.00 | 89 | 1007.1 |
| 20260506131729 | 57 | 213 | 1.7 | 5.2 | 0.00 | 0.00 | 0.00 | 89 | 1007.6 |
| 20260506125501 | 57 | 236 | 1.7 | 6.1 | 0.00 | 0.00 | 0.00 | 89 | 1007.8 |
| 20260506123958 | 57 | 230 | 2.6 | 7.0 | 0.00 | 0.00 | 0.00 | 90 | 1007.9 |
| 20260506122458 | 57 | 236 | 2.6 | 7.0 | 0.00 | 0.00 | 0.00 | 90 | 1007.5 |
| 20260506120957 | 57 | 250 | 2.6 | 9.6 | 0.00 | 0.00 | 0.00 | 90 | 1007.1 |
| 20260506115458 | 56 | 225 | 2.6 | 7.0 | 0.00 | 0.00 | 0.00 | 90 | 1007.4 |
| 20260506113955 | 56 | 234 | 3.5 | 6.1 | 0.00 | 0.00 | 0.00 | 91 | 1007.7 |
| 20260506112455 | 56 | 246 | 2.6 | 5.2 | 0.00 | 0.00 | 0.00 | 91 | 1007.5 |
| 20260506111726 | 55 | 209 | 2.6 | 7.8 | 0.00 | 0.00 | 0.00 | 93 | 1007.5 |
| 20260506105454 | 54 | 212 | 1.7 | 3.5 | 0.00 | 0.00 | 0.00 | 95 | 1007.5 |
| 20260506103952 | 53 | 196 | 0.9 | 3.5 | 0.00 | 0.00 | 0.00 | 95 | 1007.5 |
| 20260506103221 | 52 | 209 | 0.9 | 2.6 | 0.00 | 0.00 | 0.00 | 95 | 1007.5 |
| 20260506101721 | 51 | 270 | 0.0 | 1.7 | 0.00 | 0.00 | 0.00 | 94 | 1007.5 |
| 20260506095450 | 51 | 211 | 0.0 | 1.7 | 0.00 | 0.00 | 0.00 | 94 | 1007.6 |
| 20260506093950 | 51 | 203 | 0.0 | 1.7 | 0.00 | 0.00 | 0.00 | 93 | 1007.5 |
| 20260506093223 | 51 | 263 | 0.0 | 1.7 | 0.00 | 0.00 | 0.00 | 92 | 1007.5 |
| 20260506090951 | 52 | 211 | 0.0 | 1.7 | 0.00 | 0.00 | 0.00 | 92 | 1007.5 |
| 20260506085452 | 52 | 163 | 0.0 | 0.0 | 0.00 | 0.00 | 0.00 | 92 | 1007.4 |
| 20260506083950 | 53 | 256 | 0.0 | 3.5 | 0.00 | 0.00 | 0.00 | 91 | 1007.7 |
| 20260506082450 | 53 | 62 | 0.9 | 2.6 | 0.00 | 0.00 | 0.00 | 91 | 1007.8 |
| 20260506080951 | 53 | 62 | 0.0 | 0.9 | 0.00 | 0.00 | 0.00 | 90 | 1008.0 |
| 20260506072451 | 55 | 236 | 0.0 | 0.0 | 0.00 | 0.00 | 0.00 | 87 | 1008.1 |
| 20260506070950 | 55 | 271 | 0.0 | 1.7 | 0.00 | 0.00 | 0.00 | 86 | 1008.0 |
| 20260506062440 | 56 | 215 | 0.0 | 3.5 | 0.00 | 0.00 | 0.00 | 85 | 1007.9 |
| 20260506060940 | 57 | 253 | 0.0 | 2.6 | 0.00 | 0.00 | 0.00 | 84 | 1008.0 |
| 20260506043932 | 58 | 274 | 0.9 | 2.6 | 0.00 | 0.00 | 0.00 | 88 | 1008.1 |
| 20260506042431 | 59 | 247 | 0.0 | 0.9 | 0.00 | 0.00 | 0.00 | 88 | 1008.1 |
| 20260506040930 | 60 | 196 | 0.0 | 1.7 | 0.00 | 0.00 | 0.00 | 86 | 1007.8 |
| 20260506035425 | 60 | 60 | 0.0 | 0.0 | 0.00 | 0.00 | 0.00 | 86 | 1007.7 |
| 20260506034055 | 60 | 276 | 0.0 | 5.2 | 0.00 | 0.00 | 0.00 | 87 | 1007.8 |
| 20260506032554 | 59 | 207 | 0.0 | 1.7 | 0.00 | 0.00 | 0.00 | 90 | 1007.9 |